[[{"header":{"parameterUnit":"m.s-1","parameterCategory":2,"la1":30.2991,"la2":30.254,"lo1":-89.0895,"lo2":-89.0444,"dy":0.0017,"dx":0.0017,"nx":28,"ny":28,"refTime":"2025-04-03T09:00:00:Z","depth":"0","parameterNumber":2,"parameterNumberName":"U-component_of_CURRENTS"},"data":[0,0,0,0,0,0,0,0,0,0,0,0,0,0,0,0,0,0,0,0,0,0,0,0,0,0,0,0,0,0,0,0,0,0,0,0,0,0,0,0,0,0,0,0,0,0,0,0,0,0,0,0,0,0,0,0,0,0,-0.2446,-0.2446,0,-0.2467,-0.2467,-0.2467,-0.244,-0.244,-0.2439,-0.2438,-0.2403,-0.2403,-0.2403,0,0,0,0,0,0,0,0,0,0,0,0,0,-0.239,-0.2391,-0.2446,-0.2446,-0.2447,-0.2467,-0.2467,-0.2467,-0.2441,-0.244,-0.2439,-0.2438,-0.2403,-0.2403,-0.2403,0,0,0,0,0,0,0,0,0,0,0,0,0,-0.2411,-0.2391,-0.2445,-0.2438,-0.2437,-0.2467,-0.2467,-0.2467,-0.2441,-0.244,-0.2439,-0.2437,-0.2403,-0.2403,-0.2403,-0.2423,0,0,-0.2402,-0.2401,0,0,0,0,0,0,0,0,-0.2409,-0.2412,-0.2438,-0.2438,-0.2438,-0.2452,-0.2435,-0.245,-0.2441,-0.2437,-0.2438,-0.2437,-0.2417,-0.2415,-0.2419,-0.2422,-0.242,-0.2402,-0.2401,-0.2401,-0.2401,0,0,0,0,0,0,0,-0.2408,-0.2411,-0.2452,-0.2439,-0.2439,-0.2436,-0.2437,-0.2438,-0.243,-0.2437,-0.2436,-0.2442,-0.2416,-0.242,-0.2418,-0.242,-0.2402,-0.2401,-0.2401,-0.2401,-0.2469,-0.2471,0,0,0,0,0,0,-0.2411,-0.241,-0.2451,-0.2452,-0.2423,-0.2438,-0.2439,-0.2447,-0.2431,-0.2429,-0.2443,-0.2441,-0.2421,-0.2418,-0.2417,-0.2468,-0.2401,-0.2401,-0.2401,-0.2467,-0.2469,-0.2471,0,0,0,0,0,0,-0.241,-0.2415,-0.245,-0.2433,-0.2438,-0.244,-0.2449,-0.2448,-0.2447,-0.2437,-0.2433,-0.2443,-0.242,-0.2417,-0.2427,-0.2465,-0.2401,-0.24,-0.2464,-0.2468,-0.247,-0.2552,0,0,0,0,0,0,-0.2408,-0.2414,-0.2414,-0.2434,-0.2439,-0.2476,-0.245,-0.2449,-0.2454,-0.2451,-0.2436,-0.2431,-0.2419,-0.2428,-0.2427,-0.2463,-0.24,-0.2462,-0.2466,-0.2469,-0.2546,-0.2557,-0.2566,0,0,0,0,0,-0.2406,-0.2419,-0.2414,-0.2419,-0.2442,-0.2477,-0.248,-0.2475,-0.2455,-0.2467,-0.2457,-0.2432,-0.2451,-0.2429,-0.2427,-0.2464,-0.246,-0.2465,-0.2469,-0.2542,-0.2555,-0.2566,0,0,0,0,0,0,-0.2391,-0.2419,-0.2413,-0.2431,-0.2455,-0.2474,-0.248,-0.2478,-0.248,-0.247,-0.2451,-0.2448,-0.2474,-0.2459,-0.2435,-0.2497,-0.2454,-0.2459,-0.251,-0.2522,-0.2532,-0.2536,-0.24,0,0,0,0,0,-0.239,-0.2403,-0.2433,-0.2443,-0.2457,-0.2467,-0.2476,-0.248,-0.2488,-0.2487,-0.2479,-0.2477,-0.2494,-0.2497,-0.2503,-0.2532,-0.25,-0.2558,-0.2568,-0.2576,-0.258,-0.2572,-0.258,-0.2486,-0.2486,-0.2486,0,0,-0.2383,-0.2401,-0.2406,-0.2441,-0.2452,-0.2494,-0.2469,-0.2493,-0.2527,-0.2484,-0.2514,-0.2507,-0.2509,-0.2547,-0.2558,-0.2536,-0.2585,-0.2582,-0.2589,-0.2588,-0.2577,-0.2586,-0.2594,-0.2489,-0.2489,-0.2488,0,0,-0.2396,-0.2398,-0.2422,-0.2452,-0.2485,-0.2503,-0.2513,-0.2539,-0.2547,-0.258,-0.2565,-0.2581,-0.2594,-0.2614,-0.2624,-0.2691,-0.2636,-0.2694,-0.2748,-0.274,-0.2747,-0.2753,-0.2714,-0.2716,-0.2701,-0.2701,-0.2701,0,-0.2385,-0.2424,-0.2434,-0.2478,-0.2507,-0.2513,-0.2559,-0.2583,-0.2607,-0.2623,-0.2598,-0.2637,-0.2633,-0.2693,-0.2721,-0.2714,-0.2683,-0.2701,-0.2751,-0.2757,-0.2761,-0.272,-0.2721,-0.2705,-0.2705,-0.2704,-0.2704,0,-0.2428,-0.2462,-0.2482,-0.254,-0.2575,-0.2612,-0.2657,-0.2684,-0.2688,-0.2706,-0.2748,-0.2746,-0.2764,-0.2779,-0.2771,-0.2819,-0.2776,-0.2761,-0.2717,-0.2775,-0.2728,-0.2727,-0.2712,-0.271,-0.2709,-0.2708,0,0,-0.239,-0.2492,-0.2496,-0.2537,-0.2611,-0.2643,-0.2712,-0.2774,-0.2805,-0.2827,-0.2862,-0.2906,-0.2883,-0.2894,-0.2886,-0.2889,-0.2895,-0.2843,-0.284,-0.2795,-0.2849,-0.2793,-0.2786,-0.2882,-0.2882,-0.2883,-0.2799,0,-0.2416,-0.2506,-0.2555,-0.2638,-0.2688,-0.2735,-0.2798,-0.2852,-0.2878,-0.2911,-0.2926,-0.2948,-0.2936,-0.2932,-0.2943,-0.2903,-0.2899,-0.2918,-0.2807,-0.2803,-0.2739,-0.2786,-0.2709,-0.2625,-0.2798,-0.2797,-0.2797,0,-0.2436,-0.2497,-0.2585,-0.2691,-0.2716,-0.2765,-0.2848,-0.2906,-0.2968,-0.2984,-0.3013,-0.3007,-0.3032,-0.2996,-0.2969,-0.2975,-0.2923,-0.2888,-0.2883,-0.2802,-0.2746,-0.2598,-0.2617,-0.2609,-0.2795,-0.2796,-0.2796,0,-0.2395,-0.2513,-0.2581,-0.2618,-0.2741,-0.278,-0.2835,-0.2913,-0.2957,-0.3011,-0.3024,-0.3055,-0.3039,-0.3011,-0.2949,-0.2951,-0.2889,-0.2878,-0.278,-0.2773,-0.2672,-0.2656,-0.2662,-0.2854,-0.2855,-0.2855,-0.2855,0,-0.24,-0.2449,-0.2561,-0.2596,-0.2664,-0.2755,-0.2818,-0.2878,-0.2952,-0.2987,-0.3038,-0.3048,-0.3038,-0.3005,-0.2956,-0.286,-0.289,-0.2792,-0.2758,-0.2697,-0.2685,-0.2643,-0.2654,-0.2852,-0.2852,-0.2853,-0.2853,0,-0.234,-0.2421,-0.2495,-0.2613,-0.2645,-0.2682,-0.2793,-0.2831,-0.2915,-0.2954,-0.2967,-0.3024,-0.2981,-0.2957,-0.2889,-0.2844,-0.2726,-0.2729,-0.2646,-0.2605,-0.2512,-0.253,-0.2461,-0.239,-0.2609,-0.2607,-0.2606,0,-0.2319,-0.2352,-0.2467,-0.2491,-0.2537,-0.261,-0.2653,-0.2779,-0.2818,-0.2925,-0.2924,-0.293,-0.2902,-0.2806,-0.2737,-0.264,-0.2633,-0.2514,-0.2523,-0.2504,-0.2499,-0.2501,-0.2447,-0.2409,-0.2406,-0.2404,-0.2402,0,-0.2256,-0.2291,-0.2339,-0.2395,-0.2438,-0.2505,-0.2575,-0.2609,-0.2739,-0.2777,-0.2805,-0.2798,-0.2749,-0.264,-0.2549,-0.2479,-0.2468,-0.246,-0.2468,-0.2373,-0.2347,-0.2262,-0.2453,-0.238,-0.2382,-0.2384,-0.2385,-0.2386,-0.2172,-0.2181,-0.2233,-0.2273,-0.2322,-0.2359,-0.2356,-0.2445,-0.2488,-0.2522,-0.2616,-0.2589,-0.2571,-0.2439,-0.2375,-0.2267,-0.2291,-0.2213,-0.224,-0.2247,-0.2181,-0.2317,-0.2197,-0.2198,-0.2199,-0.22,-0.2201,0,-0.2059,-0.2077,-0.2107,-0.2144,-0.2135,-0.2216,-0.2266,-0.2234,-0.222,-0.2316,-0.2325,-0.2359,-0.2267,-0.2259,-0.2176,-0.2088,-0.2032,-0.2042,-0.2042,-0.1998,-0.2134,-0.2129,-0.1956,-0.1956,-0.1956,-0.1956,-0.1956,-0.1956,-0.1996,-0.1976,-0.1999,-0.1941,-0.1954,-0.1893,-0.1882,-0.1862,-0.1896,-0.1902,-0.1972,-0.2071,-0.2091,-0.2232,-0.2123,-0.2026,-0.1969,-0.191,-0.1915,-0.2049,-0.2068,-0.2087,-0.2086,-0.1907,-0.1907,-0.1719,-0.1718,-0.1717]},{"header":{"parameterUnit":"m.s-1","parameterCategory":2,"la1":30.2991,"la2":30.254,"lo1":-89.0895,"lo2":-89.0444,"dy":0.0017,"dx":0.0017,"nx":28,"ny":28,"refTime":"2025-04-03T09:00:00:Z","depth":"0","parameterNumber":3,"parameterNumberName":"V-component_of_CURRENTS"},"data":[0,0,0,0,0,0,0,0,0,0,0,0,0,0,0,0,0,0,0,0,0,0,0,0,0,0,0,0,0,0,0,0,0,0,0,0,0,0,0,0,0,0,0,0,0,0,0,0,0,0,0,0,0,0,0,0,0,0,-0.0216,-0.0215,0,-0.0119,-0.0118,-0.0116,-0.0049,-0.0049,-0.0049,-0.0048,0.0087,0.009,0.0094,0,0,0,0,0,0,0,0,0,0,0,0,0,-0.0279,-0.0278,-0.0216,-0.0215,-0.0214,-0.0119,-0.0118,-0.0116,-0.0049,-0.0049,-0.0049,-0.0048,0.0086,0.009,0.0094,0,0,0,0,0,0,0,0,0,0,0,0,0,-0.0222,-0.0278,-0.0216,-0.0171,-0.0166,-0.0119,-0.0118,-0.0116,-0.0049,-0.0049,-0.0048,-0.0048,0.0085,0.009,0.0094,0.0115,0,0,0.011,0.0112,0,0,0,0,0,0,0,0,-0.0225,-0.022,-0.0178,-0.0174,-0.0168,-0.0097,-0.009,-0.0037,-0.005,-0.0092,-0.0048,-0.0048,0.0027,0.0037,0.0056,0.0121,0.0127,0.011,0.0113,0.0115,0.0116,0,0,0,0,0,0,0,-0.023,-0.0223,-0.0176,-0.0177,-0.0171,-0.0133,-0.0125,-0.0079,-0.0034,-0.0088,-0.0083,-0.0076,0.0031,0.0051,0.006,0.0129,0.011,0.0114,0.0117,0.0119,0.0244,0.0245,0,0,0,0,0,0,-0.0249,-0.0227,-0.0179,-0.0173,-0.0198,-0.0133,-0.0123,-0.0119,-0.0035,-0.0023,-0.0076,-0.0073,0.0043,0.0054,0.0065,0.0108,0.0115,0.012,0.0122,0.0244,0.0244,0.0245,0,0,0,0,0,0,-0.0251,-0.0246,-0.0183,-0.0199,-0.0189,-0.0133,-0.0128,-0.0118,-0.0097,-0.0027,-0.0013,-0.0067,0.0044,0.0058,0.0106,0.0113,0.0122,0.0126,0.0243,0.0244,0.0245,0.0184,0,0,0,0,0,0,-0.0253,-0.0247,-0.0252,-0.0201,-0.0189,-0.0163,-0.0128,-0.0116,-0.0094,-0.0088,-0.0014,-0.0001,0.0045,0.0098,0.011,0.012,0.013,0.0243,0.0244,0.0244,0.0186,0.0183,0.018,0,0,0,0,0,-0.0256,-0.0268,-0.0253,-0.0247,-0.0196,-0.0163,-0.0154,-0.011,-0.0094,-0.0089,-0.0036,-0.0004,0.0111,0.0102,0.0117,0.0128,0.0243,0.0244,0.0244,0.0187,0.0184,0.018,0,0,0,0,0,0,-0.0295,-0.026,-0.0243,-0.0243,-0.0209,-0.0153,-0.0147,-0.0117,-0.0072,-0.0067,-0.0,0.0017,0.0059,0.0101,0.0089,0.0167,0.0183,0.0187,0.0135,0.0132,0.0129,0.0118,0.0134,0,0,0,0,0,-0.0308,-0.0309,-0.0264,-0.0264,-0.0252,-0.0201,-0.0183,-0.0154,-0.0108,-0.0088,-0.0035,0.0023,0.0074,0.0107,0.0154,0.0197,0.0243,0.0215,0.0212,0.0209,0.021,0.0293,0.0298,0.0247,0.0247,0.0247,0,0,-0.0323,-0.0305,-0.0304,-0.0273,-0.0244,-0.0231,-0.0188,-0.0168,-0.0149,-0.008,-0.0042,0.0009,0.0081,0.0128,0.0152,0.0165,0.0244,0.021,0.0207,0.021,0.0295,0.03,0.0304,0.0248,0.0248,0.0248,0,0,-0.0358,-0.0338,-0.0352,-0.0328,-0.0294,-0.0258,-0.0257,-0.0205,-0.0173,-0.0132,-0.0077,-0.002,0.0053,0.0115,0.0154,0.0165,0.0219,0.0175,0.0162,0.0242,0.0247,0.0252,0.0297,0.0307,0.0182,0.0182,0.0182,0,-0.0379,-0.0388,-0.0349,-0.0353,-0.0338,-0.0277,-0.0282,-0.0238,-0.0175,-0.0144,-0.013,-0.0002,0.0052,0.0131,0.0133,0.0159,0.0199,0.0166,0.0238,0.0244,0.025,0.0296,0.0307,0.0179,0.018,0.018,0.018,0,-0.042,-0.0425,-0.043,-0.0413,-0.039,-0.0385,-0.0325,-0.0293,-0.0249,-0.0196,-0.0119,-0.0036,0.0042,0.007,0.0104,0.0177,0.0187,0.0216,0.0242,0.0251,0.0299,0.0312,0.0175,0.0176,0.0177,0.0178,0,0,-0.0471,-0.0464,-0.0465,-0.0472,-0.0424,-0.0412,-0.0374,-0.0317,-0.0284,-0.0208,-0.0154,-0.0057,-0.0007,0.004,0.0102,0.0177,0.0244,0.0206,0.0211,0.0243,0.0397,0.0422,0.0439,0.0284,0.0287,0.0288,0.0405,0,-0.0515,-0.0553,-0.0522,-0.0538,-0.055,-0.0479,-0.0447,-0.0382,-0.031,-0.0242,-0.0131,-0.0064,-0.0018,0.0018,0.01,0.0211,0.0278,0.0208,0.0391,0.0396,0.0413,0.0456,0.0499,0.061,0.0418,0.042,0.0422,0,-0.0564,-0.0585,-0.0623,-0.0608,-0.0604,-0.0593,-0.0526,-0.0488,-0.0366,-0.0307,-0.0206,-0.0121,-0.0002,0.003,0.0231,0.0182,0.0275,0.0363,0.037,0.0428,0.0447,0.0576,0.0641,0.0808,0.0442,0.0441,0.0439,0,-0.0634,-0.0648,-0.0686,-0.0683,-0.0654,-0.0644,-0.0614,-0.0512,-0.0473,-0.0347,-0.0298,-0.0144,-0.0065,0.0085,0.0257,0.0245,0.0476,0.0487,0.0599,0.0601,0.0692,0.0698,0.0939,0.0624,0.0624,0.0624,0.0623,0,-0.0698,-0.0723,-0.0727,-0.0748,-0.0775,-0.0719,-0.0707,-0.0644,-0.0545,-0.0493,-0.0346,-0.0264,-0.0046,0.0111,0.0256,0.0471,0.0479,0.0608,0.0647,0.0669,0.0672,0.0865,0.0911,0.0628,0.0627,0.0626,0.0625,0,-0.0769,-0.0772,-0.0817,-0.0815,-0.0815,-0.0834,-0.0793,-0.0771,-0.0664,-0.0589,-0.0554,-0.0345,-0.013,0.0088,0.0346,0.0471,0.0772,0.0736,0.0729,0.0765,0.1012,0.105,0.1295,0.1383,0.0881,0.0883,0.0884,0,-0.0811,-0.0847,-0.0885,-0.0917,-0.0922,-0.0936,-0.0937,-0.0849,-0.0813,-0.0632,-0.0598,-0.0374,-0.0193,0.0196,0.0466,0.0742,0.0858,0.0922,0.0917,0.1051,0.1123,0.1144,0.12,0.1008,0.101,0.1012,0.1013,0,-0.0887,-0.0901,-0.0941,-0.1019,-0.1047,-0.1067,-0.1055,-0.1046,-0.092,-0.082,-0.0647,-0.0485,-0.0088,0.0272,0.063,0.0795,0.1042,0.0965,0.1137,0.1273,0.1283,0.1376,0.0874,0.1029,0.1028,0.1027,0.1026,0.1025,-0.0933,-0.0987,-0.1046,-0.1112,-0.1154,-0.1181,-0.1189,-0.1136,-0.1066,-0.0876,-0.0715,-0.0421,0.0111,0.0643,0.083,0.1246,0.1188,0.1372,0.1413,0.1426,0.1507,0.1015,0.1191,0.119,0.119,0.1189,0.1189,0,-0.0989,-0.1049,-0.1129,-0.1205,-0.1266,-0.1256,-0.1249,-0.1215,-0.1127,-0.0896,-0.0688,-0.0084,0.0424,0.0897,0.1483,0.1695,0.1735,0.1799,0.1868,0.1909,0.1526,0.1529,0.1747,0.1747,0.1747,0.1747,0.1746,0.1746,-0.1019,-0.1115,-0.1164,-0.1282,-0.1329,-0.1367,-0.1359,-0.1269,-0.1109,-0.0727,-0.0358,-0.0052,0.0635,0.1567,0.21,0.2142,0.231,0.2281,0.2367,0.2128,0.2092,0.2057,0.2076,0.2405,0.2406,0.2754,0.2758,0.276]}],[{"header":{"parameterUnit":"m.s-1","parameterCategory":2,"la1":30.2991,"la2":30.254,"lo1":-89.0895,"lo2":-89.0444,"dy":0.0017,"dx":0.0017,"nx":28,"ny":28,"refTime":"2025-04-03T09:00:00:Z","depth":"2","parameterNumber":2,"parameterNumberName":"U-component_of_CURRENTS"},"data":[0,0,0,0,0,0,0,0,0,0,0,0,0,0,0,0,0,0,0,0,0,0,0,0,0,0,0,0,0,0,0,0,0,0,0,0,0,0,0,0,0,0,0,0,0,0,0,0,0,0,0,0,0,0,0,0,0,0,-0.2289,-0.2289,0,-0.2309,-0.2309,-0.2309,-0.2286,-0.2286,-0.2285,-0.2285,-0.2251,-0.2251,-0.225,0,0,0,0,0,0,0,0,0,0,0,0,0,-0.2234,-0.2235,-0.2289,-0.2289,-0.229,-0.2309,-0.2309,-0.2309,-0.2287,-0.2286,-0.2285,-0.2284,-0.2251,-0.2251,-0.225,0,0,0,0,0,0,0,0,0,0,0,0,0,-0.2254,-0.2236,-0.2289,-0.2283,-0.2282,-0.2309,-0.2309,-0.2309,-0.2287,-0.2286,-0.2285,-0.2284,-0.2251,-0.2251,-0.225,-0.2267,0,0,-0.2249,-0.2249,0,0,0,0,0,0,0,0,-0.2253,-0.2256,-0.2283,-0.2283,-0.2283,-0.2296,-0.2278,-0.2293,-0.2287,-0.2283,-0.2285,-0.2283,-0.2263,-0.2262,-0.2265,-0.2265,-0.2264,-0.2249,-0.2249,-0.2248,-0.2248,0,0,0,0,0,0,0,-0.2252,-0.2255,-0.2294,-0.2284,-0.2284,-0.228,-0.2282,-0.2281,-0.2275,-0.2283,-0.2282,-0.2288,-0.2263,-0.2266,-0.2264,-0.2263,-0.2249,-0.2248,-0.2248,-0.2248,-0.2307,-0.2309,0,0,0,0,0,0,-0.2255,-0.2254,-0.2294,-0.2295,-0.2268,-0.2282,-0.2284,-0.2291,-0.2276,-0.2274,-0.2289,-0.2287,-0.2267,-0.2265,-0.2263,-0.2311,-0.2248,-0.2248,-0.2248,-0.2306,-0.2308,-0.231,0,0,0,0,0,0,-0.2254,-0.2259,-0.2293,-0.2277,-0.2281,-0.2284,-0.2293,-0.2292,-0.2293,-0.2282,-0.2278,-0.2291,-0.2266,-0.2263,-0.2273,-0.2308,-0.2248,-0.2247,-0.2303,-0.2306,-0.2309,-0.2388,0,0,0,0,0,0,-0.2253,-0.2258,-0.226,-0.2277,-0.2282,-0.2317,-0.2294,-0.2293,-0.23,-0.2298,-0.2283,-0.2279,-0.2265,-0.2274,-0.2272,-0.2306,-0.2247,-0.2301,-0.2305,-0.2308,-0.2383,-0.2393,-0.2402,0,0,0,0,0,-0.2251,-0.2263,-0.226,-0.2264,-0.2286,-0.2319,-0.2321,-0.2318,-0.2301,-0.2313,-0.2304,-0.2279,-0.2295,-0.2275,-0.2273,-0.2307,-0.2299,-0.2304,-0.2308,-0.2379,-0.2391,-0.2401,0,0,0,0,0,0,-0.2237,-0.2263,-0.2259,-0.2277,-0.2299,-0.2316,-0.2323,-0.2322,-0.2324,-0.2317,-0.2297,-0.2294,-0.2318,-0.2303,-0.2281,-0.2337,-0.2296,-0.23,-0.2351,-0.2362,-0.2371,-0.2374,-0.2247,0,0,0,0,0,-0.2237,-0.225,-0.2278,-0.2289,-0.2302,-0.2311,-0.2321,-0.2325,-0.2333,-0.2332,-0.2324,-0.2322,-0.2336,-0.2339,-0.2343,-0.2368,-0.2338,-0.2392,-0.2401,-0.2409,-0.2412,-0.2405,-0.2414,-0.2324,-0.2323,-0.2323,0,0,-0.2232,-0.2249,-0.2254,-0.2286,-0.2298,-0.2335,-0.2314,-0.2337,-0.2368,-0.2328,-0.2356,-0.2351,-0.235,-0.2384,-0.2394,-0.2373,-0.2418,-0.2414,-0.2421,-0.2419,-0.241,-0.2419,-0.2426,-0.2326,-0.2326,-0.2325,0,0,-0.2244,-0.2248,-0.227,-0.2298,-0.2329,-0.2345,-0.2355,-0.238,-0.2389,-0.242,-0.2406,-0.2422,-0.2432,-0.2448,-0.2455,-0.2518,-0.2467,-0.2521,-0.2571,-0.2565,-0.2572,-0.2578,-0.2542,-0.2544,-0.2527,-0.2527,-0.2527,0,-0.2235,-0.227,-0.2281,-0.232,-0.2347,-0.2355,-0.2396,-0.2418,-0.2443,-0.2457,-0.2437,-0.2471,-0.2468,-0.2519,-0.2546,-0.254,-0.2512,-0.2527,-0.2576,-0.2581,-0.2585,-0.2547,-0.2548,-0.2531,-0.2531,-0.253,-0.253,0,-0.2273,-0.2304,-0.2322,-0.2374,-0.2407,-0.2441,-0.2483,-0.2509,-0.2515,-0.2533,-0.2572,-0.2571,-0.2588,-0.2602,-0.2594,-0.2639,-0.26,-0.2586,-0.2543,-0.2599,-0.2555,-0.2555,-0.2537,-0.2536,-0.2535,-0.2533,0,0,-0.2239,-0.2331,-0.2334,-0.237,-0.2438,-0.2467,-0.2531,-0.2586,-0.2614,-0.2639,-0.2671,-0.2713,-0.2697,-0.2705,-0.2699,-0.2703,-0.2712,-0.2662,-0.266,-0.2619,-0.2673,-0.2615,-0.2608,-0.2702,-0.2702,-0.2703,-0.2626,0,-0.2261,-0.2339,-0.2384,-0.2457,-0.2501,-0.2545,-0.2603,-0.2653,-0.2679,-0.2711,-0.2727,-0.275,-0.2743,-0.2743,-0.2754,-0.272,-0.2716,-0.2733,-0.2632,-0.2628,-0.2564,-0.2608,-0.2419,-0.2332,-0.2625,-0.2625,-0.2625,0,-0.2277,-0.233,-0.2407,-0.25,-0.2522,-0.2568,-0.2643,-0.2695,-0.2755,-0.2773,-0.2804,-0.2802,-0.283,-0.2801,-0.2779,-0.2786,-0.274,-0.2708,-0.2704,-0.2621,-0.257,-0.2327,-0.232,-0.2624,-0.2624,-0.2624,-0.2624,0,-0.2235,-0.234,-0.2398,-0.2431,-0.2541,-0.2579,-0.263,-0.2703,-0.2742,-0.2799,-0.2814,-0.2846,-0.2838,-0.2816,-0.2764,-0.2766,-0.2711,-0.2701,-0.2605,-0.2599,-0.2404,-0.238,-0.2681,-0.2681,-0.2681,-0.2681,-0.2681,0,-0.2235,-0.2278,-0.2379,-0.241,-0.2469,-0.2554,-0.2612,-0.2669,-0.2741,-0.2772,-0.2829,-0.2839,-0.284,-0.2812,-0.2769,-0.2681,-0.2712,-0.2616,-0.2584,-0.2426,-0.2407,-0.2634,-0.263,-0.2678,-0.2679,-0.2679,-0.268,0,-0.2176,-0.225,-0.2313,-0.2421,-0.2451,-0.2485,-0.2589,-0.2622,-0.2707,-0.2745,-0.2761,-0.282,-0.2785,-0.2767,-0.2709,-0.2666,-0.26,-0.2558,-0.2363,-0.2311,-0.2487,-0.2488,-0.2446,-0.2443,-0.2441,-0.2439,-0.2438,0,-0.2154,-0.2182,-0.2285,-0.2306,-0.235,-0.2418,-0.2457,-0.2577,-0.2612,-0.2717,-0.2716,-0.2729,-0.2702,-0.2617,-0.2539,-0.2447,-0.252,-0.2229,-0.222,-0.2495,-0.2467,-0.2472,-0.2475,-0.1978,-0.1973,-0.1969,-0.1965,0,-0.2091,-0.2124,-0.2164,-0.2213,-0.2254,-0.2311,-0.2377,-0.2407,-0.2531,-0.2569,-0.2597,-0.2592,-0.2537,-0.2368,-0.2278,-0.2202,-0.2238,-0.2142,-0.2462,-0.2088,-0.2053,-0.2027,-0.2046,-0.1928,-0.1932,-0.1934,-0.1936,-0.1938,-0.2012,-0.2015,-0.2061,-0.2094,-0.2139,-0.2169,-0.2163,-0.2241,-0.2277,-0.2291,-0.239,-0.231,-0.2288,-0.2053,-0.1948,-0.1864,-0.2013,-0.1917,-0.1929,-0.1946,-0.1927,-0.1893,-0.1732,-0.1734,-0.1736,-0.1738,-0.174,0,-0.19,-0.1914,-0.1938,-0.1967,-0.1952,-0.2033,-0.2073,-0.2024,-0.2001,-0.2048,-0.2042,-0.1821,-0.1731,-0.1712,-0.1534,-0.1509,-0.1486,-0.1441,-0.141,-0.1448,-0.1481,-0.1439,-0.1113,-0.1111,-0.1109,-0.1108,0,0,-0.1839,-0.1811,-0.1827,-0.1763,-0.1778,-0.171,-0.1697,-0.1643,-0.1631,-0.1535,-0.1497,-0.163,-0.1663,-0.1388,-0.1327,-0.1193,-0.1304,-0.1131,-0.1632,-0.1632,-0.1663,-0.1752,-0.1729,0,0,0,0,0]},{"header":{"parameterUnit":"m.s-1","parameterCategory":2,"la1":30.2991,"la2":30.254,"lo1":-89.0895,"lo2":-89.0444,"dy":0.0017,"dx":0.0017,"nx":28,"ny":28,"refTime":"2025-04-03T09:00:00:Z","depth":"2","parameterNumber":3,"parameterNumberName":"V-component_of_CURRENTS"},"data":[0,0,0,0,0,0,0,0,0,0,0,0,0,0,0,0,0,0,0,0,0,0,0,0,0,0,0,0,0,0,0,0,0,0,0,0,0,0,0,0,0,0,0,0,0,0,0,0,0,0,0,0,0,0,0,0,0,0,-0.024,-0.0239,0,-0.0146,-0.0144,-0.0143,-0.008,-0.008,-0.0079,-0.0079,0.0052,0.0055,0.0058,0,0,0,0,0,0,0,0,0,0,0,0,0,-0.0304,-0.0304,-0.024,-0.0239,-0.0238,-0.0146,-0.0144,-0.0143,-0.008,-0.008,-0.0079,-0.0079,0.0051,0.0055,0.0059,0,0,0,0,0,0,0,0,0,0,0,0,0,-0.0249,-0.0304,-0.024,-0.0197,-0.0192,-0.0146,-0.0144,-0.0143,-0.008,-0.008,-0.0079,-0.0079,0.005,0.0054,0.0059,0.0081,0,0,0.0074,0.0076,0,0,0,0,0,0,0,0,-0.0252,-0.0246,-0.0204,-0.0199,-0.0194,-0.0126,-0.0119,-0.0067,-0.008,-0.0121,-0.0079,-0.0079,-0.0005,0.0004,0.0023,0.0087,0.0093,0.0074,0.0077,0.008,0.0081,0,0,0,0,0,0,0,-0.0256,-0.0249,-0.0201,-0.0203,-0.0197,-0.0161,-0.0153,-0.0109,-0.0065,-0.0117,-0.0113,-0.0105,-0.0002,0.0018,0.0026,0.0094,0.0074,0.0079,0.0082,0.0084,0.02,0.0201,0,0,0,0,0,0,-0.0275,-0.0254,-0.0204,-0.0198,-0.0225,-0.0161,-0.0152,-0.0147,-0.0066,-0.0054,-0.0106,-0.0103,0.0009,0.0021,0.0031,0.0067,0.0079,0.0084,0.0087,0.02,0.02,0.0201,0,0,0,0,0,0,-0.0276,-0.0271,-0.0208,-0.0225,-0.0214,-0.0161,-0.0155,-0.0145,-0.0125,-0.0058,-0.0045,-0.0097,0.001,0.0024,0.007,0.0073,0.0086,0.0091,0.02,0.02,0.0201,0.0136,0,0,0,0,0,0,-0.0279,-0.0272,-0.0276,-0.0226,-0.0214,-0.0188,-0.0155,-0.0144,-0.0122,-0.0117,-0.0046,-0.0033,0.0012,0.0062,0.0074,0.008,0.0094,0.02,0.02,0.02,0.0138,0.0134,0.0131,0,0,0,0,0,-0.0281,-0.0291,-0.0277,-0.0271,-0.0221,-0.0189,-0.0179,-0.0138,-0.0122,-0.0118,-0.0068,-0.0035,0.0073,0.0066,0.0081,0.0087,0.02,0.02,0.02,0.014,0.0135,0.0131,0,0,0,0,0,0,-0.0319,-0.0284,-0.0268,-0.0265,-0.0233,-0.0179,-0.0173,-0.0144,-0.0101,-0.0097,-0.0032,-0.0016,0.0022,0.0064,0.0054,0.0122,0.0142,0.0145,0.0091,0.0087,0.0083,0.007,0.0098,0,0,0,0,0,-0.0331,-0.033,-0.0287,-0.0285,-0.0274,-0.0225,-0.0207,-0.018,-0.0136,-0.0116,-0.0066,-0.0011,0.0036,0.0067,0.0111,0.015,0.0196,0.0165,0.0161,0.0158,0.0158,0.0234,0.0237,0.0202,0.0202,0.0202,0,0,-0.0344,-0.0326,-0.0324,-0.0294,-0.0266,-0.0255,-0.0213,-0.0193,-0.0178,-0.0109,-0.0075,-0.0027,0.0041,0.0083,0.0105,0.0119,0.0189,0.0159,0.0155,0.0157,0.0235,0.0239,0.0242,0.0202,0.0202,0.0202,0,0,-0.0378,-0.0356,-0.037,-0.0348,-0.0316,-0.0282,-0.0281,-0.0231,-0.0202,-0.0164,-0.0112,-0.006,0.001,0.0064,0.01,0.0106,0.0162,0.0117,0.0098,0.0171,0.0175,0.0179,0.0226,0.0235,0.0123,0.0122,0.0122,0,-0.0397,-0.0406,-0.0367,-0.0373,-0.0361,-0.0301,-0.0308,-0.0268,-0.0208,-0.018,-0.0164,-0.0047,0.0004,0.0072,0.0071,0.0098,0.0139,0.0106,0.0166,0.0171,0.0176,0.0225,0.0235,0.0119,0.012,0.012,0.012,0,-0.0439,-0.0444,-0.045,-0.0437,-0.0416,-0.0412,-0.0357,-0.0328,-0.0286,-0.0238,-0.0169,-0.009,-0.0019,0.0006,0.0041,0.0102,0.0118,0.0145,0.0173,0.0176,0.0227,0.0238,0.0115,0.0116,0.0117,0.0118,0,0,-0.0486,-0.0484,-0.0485,-0.0494,-0.0452,-0.0441,-0.041,-0.0361,-0.0334,-0.0262,-0.0217,-0.0128,-0.0079,-0.0035,0.0025,0.0093,0.0154,0.0126,0.0131,0.0165,0.0301,0.0326,0.0342,0.0193,0.0195,0.0197,0.0316,0,-0.0532,-0.0574,-0.0545,-0.0567,-0.0582,-0.0515,-0.0491,-0.0433,-0.0366,-0.0305,-0.0203,-0.0142,-0.0094,-0.006,0.0015,0.0123,0.0185,0.0118,0.03,0.0305,0.0323,0.0357,0.0299,0.0403,0.0328,0.033,0.0332,0,-0.0583,-0.0605,-0.0648,-0.064,-0.0638,-0.0631,-0.0575,-0.0543,-0.0433,-0.0378,-0.0286,-0.0204,-0.0094,-0.0059,0.0132,0.0086,0.018,0.0265,0.0272,0.0329,0.0354,0.0394,0.0428,0.0352,0.0351,0.0349,0.0348,0,-0.0651,-0.0671,-0.0713,-0.0711,-0.069,-0.0685,-0.066,-0.0569,-0.0536,-0.0421,-0.0375,-0.0233,-0.0157,-0.0012,0.0159,0.0148,0.0368,0.0379,0.0491,0.0493,0.0498,0.0497,0.0508,0.0508,0.0508,0.0507,0.0507,0,-0.0716,-0.0744,-0.0752,-0.0776,-0.0807,-0.0758,-0.0753,-0.0697,-0.0609,-0.0562,-0.0424,-0.0347,-0.014,0.0012,0.0156,0.0365,0.0371,0.0497,0.0536,0.0472,0.0467,0.0467,0.0461,0.0512,0.0511,0.051,0.0509,0,-0.0786,-0.0791,-0.084,-0.0844,-0.0846,-0.0868,-0.0835,-0.0819,-0.0721,-0.0653,-0.062,-0.0424,-0.0215,-0.0006,0.0243,0.0363,0.0556,0.0622,0.052,0.0546,0.0626,0.0614,0.076,0.0762,0.0764,0.0766,0.0767,0,-0.0828,-0.0865,-0.0907,-0.094,-0.0947,-0.0965,-0.097,-0.0892,-0.0861,-0.0692,-0.0662,-0.0447,-0.0275,0.01,0.0346,0.0612,0.0616,0.0702,0.0679,0.0633,0.0657,0.0643,0.063,0.0652,0.0652,0.0653,0.0653,0,-0.0903,-0.0918,-0.0959,-0.1038,-0.1068,-0.1092,-0.1085,-0.1079,-0.0964,-0.087,-0.0706,-0.0553,-0.0185,0.0107,0.0447,0.0593,0.0657,0.0715,0.0723,0.0594,0.0541,0.0561,0.055,0.0654,0.0654,0.0654,0.0654,0.0654,-0.0948,-0.1002,-0.1061,-0.1128,-0.1171,-0.1201,-0.1211,-0.1164,-0.11,-0.0926,-0.0774,-0.0513,-0.0218,0.0264,0.05,0.0712,0.0722,0.0764,0.0759,0.0755,0.0718,0.0672,0.0801,0.0802,0.0802,0.0803,0.0803,0,-0.1003,-0.1062,-0.1142,-0.1218,-0.1278,-0.1271,-0.1269,-0.1235,-0.1153,-0.0954,-0.0762,-0.0438,-0.0094,0.0211,0.0546,0.0757,0.073,0.078,0.0697,0.0695,0.0693,0.0649,0.0716,0.0716,0.0716,0.0717,0,0,-0.1033,-0.1127,-0.1173,-0.1289,-0.1337,-0.1375,-0.1369,-0.128,-0.114,-0.0935,-0.0731,-0.0453,-0.0086,0.0129,0.0392,0.0562,0.0571,0.0572,0.062,0.0488,0.0484,0.0662,0.059,0,0,0,0,0]}],[{"header":{"parameterUnit":"m.s-1","parameterCategory":2,"la1":30.2991,"la2":30.254,"lo1":-89.0895,"lo2":-89.0444,"dy":0.0017,"dx":0.0017,"nx":28,"ny":28,"refTime":"2025-04-03T09:00:00:Z","depth":"4","parameterNumber":2,"parameterNumberName":"U-component_of_CURRENTS"},"data":[0,0,0,0,0,0,0,0,0,0,0,0,0,0,0,0,0,0,0,0,0,0,0,0,0,0,0,0,0,0,0,0,0,0,0,0,0,0,0,0,0,0,0,0,0,0,0,0,0,0,0,0,0,0,0,0,0,0,-0.1573,-0.1573,0,-0.1628,-0.1628,-0.1629,-0.1659,-0.1659,-0.1659,-0.166,-0.1689,-0.1689,-0.169,0,0,0,0,0,0,0,0,0,0,0,0,0,-0.1487,-0.1488,-0.1572,-0.1573,-0.1574,-0.1628,-0.1628,-0.1629,-0.1659,-0.1659,-0.1659,-0.166,-0.1689,-0.1689,-0.169,0,0,0,0,0,0,0,0,0,0,0,0,0,-0.153,-0.1489,-0.1572,-0.1597,-0.16,-0.1628,-0.1628,-0.1629,-0.1659,-0.1659,-0.166,-0.166,-0.1688,-0.1689,-0.169,-0.1688,0,0,-0.1693,-0.1693,0,0,0,0,0,0,0,0,-0.1527,-0.1533,-0.1592,-0.1595,-0.1599,-0.1638,-0.1609,-0.1648,-0.1659,-0.1634,-0.166,-0.166,-0.167,-0.1673,-0.168,-0.169,-0.1691,-0.1693,-0.1693,-0.1694,-0.1694,0,0,0,0,0,0,0,-0.1524,-0.153,-0.1593,-0.1593,-0.1597,-0.1603,-0.161,-0.1617,-0.1648,-0.1637,-0.1639,-0.1648,-0.1672,-0.1679,-0.1681,-0.1691,-0.1693,-0.1693,-0.1694,-0.1694,-0.1776,-0.1778,0,0,0,0,0,0,-0.1521,-0.1528,-0.1591,-0.1594,-0.1565,-0.1605,-0.1612,-0.1624,-0.1649,-0.1653,-0.1648,-0.165,-0.1678,-0.168,-0.1682,-0.1754,-0.1694,-0.1694,-0.1695,-0.1775,-0.1777,-0.1778,0,0,0,0,0,0,-0.1519,-0.1526,-0.1589,-0.1563,-0.1572,-0.1606,-0.1619,-0.1625,-0.1657,-0.1658,-0.1662,-0.1678,-0.1678,-0.1681,-0.1717,-0.1752,-0.1695,-0.1695,-0.1773,-0.1775,-0.1778,-0.1851,0,0,0,0,0,0,-0.1517,-0.1525,-0.1544,-0.1563,-0.1573,-0.1625,-0.1619,-0.1626,-0.1662,-0.1665,-0.1684,-0.1686,-0.1679,-0.1716,-0.1718,-0.1753,-0.1696,-0.1771,-0.1774,-0.1777,-0.1846,-0.1856,-0.1863,0,0,0,0,0,-0.1513,-0.1535,-0.1545,-0.1553,-0.1595,-0.1626,-0.1633,-0.1656,-0.1663,-0.1685,-0.1702,-0.1687,-0.1737,-0.1718,-0.172,-0.1756,-0.1769,-0.1773,-0.1777,-0.1842,-0.1854,-0.1863,0,0,0,0,0,0,-0.151,-0.1541,-0.1552,-0.1584,-0.1612,-0.1633,-0.1658,-0.1671,-0.1702,-0.1711,-0.1707,-0.1711,-0.1755,-0.1746,-0.1725,-0.1789,-0.1751,-0.1755,-0.1801,-0.1811,-0.182,-0.1809,-0.1697,0,0,0,0,0,-0.1517,-0.1542,-0.1571,-0.1598,-0.1615,-0.1641,-0.1661,-0.1679,-0.1703,-0.1718,-0.1733,-0.175,-0.1768,-0.1783,-0.1795,-0.1829,-0.1801,-0.1854,-0.1862,-0.187,-0.1863,-0.185,-0.1857,-0.1791,-0.1791,-0.1791,0,0,-0.1524,-0.1544,-0.156,-0.16,-0.1623,-0.1657,-0.1655,-0.1695,-0.173,-0.1715,-0.1772,-0.1781,-0.1784,-0.1826,-0.1845,-0.1826,-0.1878,-0.1875,-0.1881,-0.187,-0.1855,-0.1861,-0.1866,-0.1793,-0.1793,-0.1793,0,0,-0.154,-0.1569,-0.1594,-0.1623,-0.1667,-0.1685,-0.1703,-0.1743,-0.1769,-0.1819,-0.1819,-0.185,-0.1883,-0.1891,-0.1898,-0.196,-0.1923,-0.1972,-0.2009,-0.1997,-0.2002,-0.2006,-0.1991,-0.1992,-0.1977,-0.1978,-0.1978,0,-0.155,-0.1582,-0.1607,-0.1641,-0.167,-0.1701,-0.1738,-0.1771,-0.182,-0.184,-0.1849,-0.1901,-0.1911,-0.1946,-0.1976,-0.1979,-0.1962,-0.197,-0.2007,-0.201,-0.2012,-0.1996,-0.1996,-0.1982,-0.1981,-0.1981,-0.198,0,-0.1576,-0.1616,-0.1636,-0.1688,-0.1724,-0.1762,-0.1809,-0.1851,-0.1887,-0.1911,-0.1964,-0.1981,-0.2005,-0.2024,-0.2023,-0.2055,-0.2035,-0.2017,-0.1977,-0.2023,-0.2003,-0.2003,-0.1987,-0.1986,-0.1985,-0.1984,0,0,-0.1554,-0.1638,-0.1647,-0.1679,-0.1753,-0.1779,-0.1848,-0.1901,-0.1935,-0.1989,-0.2024,-0.2076,-0.2081,-0.2088,-0.2093,-0.2093,-0.2112,-0.2072,-0.207,-0.2049,-0.2085,-0.1962,-0.1949,-0.21,-0.21,-0.21,-0.2067,0,-0.1567,-0.1629,-0.1674,-0.1742,-0.1776,-0.1835,-0.1889,-0.1945,-0.199,-0.2032,-0.206,-0.2097,-0.2107,-0.2124,-0.2131,-0.2113,-0.2112,-0.2122,-0.2048,-0.2046,-0.1924,-0.1944,-0.2101,-0.2067,-0.2067,-0.2066,-0.2066,0,-0.1567,-0.1611,-0.1678,-0.1762,-0.1783,-0.1836,-0.1913,-0.1967,-0.2033,-0.2067,-0.2109,-0.2125,-0.2159,-0.2149,-0.2143,-0.215,-0.2127,-0.2106,-0.2104,-0.1957,-0.192,-0.2008,-0.2065,-0.2065,-0.2065,-0.2065,-0.2065,0,-0.1511,-0.1608,-0.1659,-0.1691,-0.1794,-0.1841,-0.19,-0.1977,-0.2016,-0.2088,-0.2113,-0.215,-0.2168,-0.2153,-0.2138,-0.2142,-0.2104,-0.2098,-0.1963,-0.1954,-0.2043,-0.2039,-0.2077,-0.2077,-0.2077,-0.2078,-0.2078,0,-0.1484,-0.1528,-0.1644,-0.167,-0.1731,-0.1819,-0.1882,-0.1944,-0.2022,-0.205,-0.2127,-0.2136,-0.2169,-0.2157,-0.2136,-0.2042,-0.2103,-0.196,-0.1932,-0.2078,-0.2078,-0.2043,-0.2039,-0.2076,-0.2077,-0.2077,-0.2077,0,-0.1406,-0.1486,-0.1548,-0.1667,-0.1706,-0.1749,-0.1867,-0.1897,-0.1996,-0.2033,-0.2058,-0.2127,-0.2111,-0.2118,-0.2084,-0.2019,-0.1954,-0.1905,-0.2062,-0.2045,-0.1815,-0.1816,-0.1743,-0.1739,-0.1735,-0.1731,-0.1728,0,-0.1368,-0.1393,-0.152,-0.1552,-0.1612,-0.1695,-0.1739,-0.1863,-0.1891,-0.2002,-0.1993,-0.2031,-0.2055,-0.1907,-0.1938,-0.1871,-0.185,-0.1808,-0.1811,-0.1798,-0.1779,-0.1786,-0.1793,-0.1722,-0.1721,-0.172,-0.1719,0,-0.1282,-0.1339,-0.1384,-0.1453,-0.1514,-0.1571,-0.165,-0.1657,-0.1781,-0.189,-0.1873,-0.1861,-0.1836,-0.1809,-0.1768,-0.1726,-0.1831,-0.1766,-0.1774,-0.1776,-0.1771,-0.1758,-0.1769,-0.1705,-0.1707,-0.1708,-0.1709,0,-0.1209,-0.1216,-0.128,-0.1324,-0.1394,-0.1414,-0.1483,-0.1516,-0.1566,-0.17,-0.1686,-0.1737,-0.181,-0.1732,-0.1696,-0.1642,-0.1617,-0.1562,-0.158,-0.1596,-0.1562,-0.1535,-0.1361,0,0,0,0,0,-0.1124,-0.1111,-0.1144,-0.1184,-0.1248,-0.129,-0.1397,-0.1469,-0.1593,-0.1532,-0.1608,-0.1583,-0.1545,-0.1576,-0.1485,-0.1619,-0.1617,-0.1506,-0.1562,-0.1628,-0.1644,-0.1618,0,0,0,0,0,0,-0.1066,-0.1082,-0.1092,-0.105,-0.105,-0.1108,-0.117,-0.1266,-0.1248,-0.1381,-0.1364,-0.1472,-0.1452,-0.1556,-0.1443,-0.145,-0.145,-0.1551,-0.1546,-0.1618,-0.1633,-0.1646,-0.1625,0,0,0,0,0]},{"header":{"parameterUnit":"m.s-1","parameterCategory":2,"la1":30.2991,"la2":30.254,"lo1":-89.0895,"lo2":-89.0444,"dy":0.0017,"dx":0.0017,"nx":28,"ny":28,"refTime":"2025-04-03T09:00:00:Z","depth":"4","parameterNumber":3,"parameterNumberName":"V-component_of_CURRENTS"},"data":[0,0,0,0,0,0,0,0,0,0,0,0,0,0,0,0,0,0,0,0,0,0,0,0,0,0,0,0,0,0,0,0,0,0,0,0,0,0,0,0,0,0,0,0,0,0,0,0,0,0,0,0,0,0,0,0,0,0,-0.0176,-0.0176,0,-0.0111,-0.011,-0.0109,-0.0071,-0.0071,-0.0071,-0.0071,0.0033,0.0036,0.0038,0,0,0,0,0,0,0,0,0,0,0,0,0,-0.0227,-0.0227,-0.0176,-0.0176,-0.0175,-0.0111,-0.011,-0.0109,-0.0071,-0.0071,-0.0071,-0.0071,0.0032,0.0035,0.0039,0,0,0,0,0,0,0,0,0,0,0,0,0,-0.0187,-0.0226,-0.0176,-0.0149,-0.0146,-0.0112,-0.011,-0.0109,-0.0071,-0.0071,-0.0071,-0.0071,0.0031,0.0035,0.0039,0.0063,0,0,0.0052,0.0054,0,0,0,0,0,0,0,0,-0.0189,-0.0185,-0.0154,-0.0151,-0.0148,-0.01,-0.009,-0.005,-0.0071,-0.0098,-0.0071,-0.0071,-0.0009,-0.0001,0.0012,0.0068,0.0073,0.0052,0.0055,0.0056,0.0058,0,0,0,0,0,0,0,-0.0192,-0.0187,-0.0149,-0.0153,-0.0149,-0.0127,-0.0121,-0.0082,-0.0053,-0.0096,-0.0093,-0.0088,-0.0007,0.0008,0.0015,0.0074,0.0052,0.0056,0.0058,0.006,0.0144,0.0144,0,0,0,0,0,0,-0.0205,-0.019,-0.0151,-0.0147,-0.017,-0.0126,-0.012,-0.0114,-0.0054,-0.0045,-0.0088,-0.0087,0.0001,0.001,0.0019,0.0033,0.0056,0.006,0.0063,0.0144,0.0144,0.0144,0,0,0,0,0,0,-0.0206,-0.0202,-0.0154,-0.0168,-0.0161,-0.0126,-0.012,-0.0113,-0.0101,-0.0049,-0.0039,-0.0084,0.0001,0.0013,0.0047,0.0038,0.0062,0.0066,0.0145,0.0144,0.0144,0.0074,0,0,0,0,0,0,-0.0208,-0.0203,-0.0205,-0.0169,-0.016,-0.0142,-0.012,-0.0112,-0.0099,-0.0096,-0.0042,-0.0032,0.0002,0.004,0.0051,0.0044,0.0069,0.0145,0.0145,0.0144,0.0076,0.0071,0.0066,0,0,0,0,0,-0.021,-0.0214,-0.0206,-0.0201,-0.0164,-0.0142,-0.0136,-0.0109,-0.0099,-0.0097,-0.0061,-0.0034,0.0045,0.0044,0.0056,0.005,0.0145,0.0145,0.0144,0.0078,0.0072,0.0066,0,0,0,0,0,0,-0.0234,-0.021,-0.02,-0.0196,-0.0175,-0.0136,-0.0133,-0.0114,-0.0084,-0.0082,-0.0032,-0.002,0.0003,0.0039,0.0036,0.0073,0.0098,0.01,0.0044,0.0038,0.0034,0.0017,0.0072,0,0,0,0,0,-0.0243,-0.0242,-0.0212,-0.021,-0.0203,-0.017,-0.0158,-0.0141,-0.0109,-0.0096,-0.0059,-0.0019,0.0012,0.0034,0.0067,0.0093,0.013,0.0097,0.0092,0.0087,0.0082,0.0124,0.0123,0.0142,0.0142,0.0142,0,0,-0.0251,-0.0238,-0.0237,-0.0216,-0.0198,-0.0197,-0.0162,-0.0151,-0.0149,-0.0089,-0.0074,-0.0036,0.0014,0.0036,0.0051,0.0066,0.0103,0.0087,0.0083,0.008,0.0124,0.0122,0.012,0.0142,0.0142,0.0142,0,0,-0.0276,-0.0258,-0.0271,-0.0259,-0.0241,-0.0219,-0.022,-0.0186,-0.017,-0.0147,-0.0111,-0.0079,-0.0025,0.0006,0.0029,0.002,0.0071,0.0031,-0.0001,0.0039,0.0038,0.0037,0.0087,0.0091,0.0033,0.0033,0.0033,0,-0.029,-0.0301,-0.027,-0.0281,-0.028,-0.0235,-0.025,-0.0226,-0.0185,-0.0174,-0.0154,-0.0081,-0.0041,-0.0012,-0.0018,0.0008,0.0043,0.0015,0.0032,0.0032,0.0032,0.0083,0.0089,0.003,0.003,0.0031,0.0031,0,-0.0326,-0.0337,-0.0343,-0.0345,-0.0335,-0.0339,-0.0307,-0.0293,-0.0266,-0.0237,-0.0203,-0.0143,-0.0099,-0.0082,-0.0052,-0.0031,-0.0002,0.0015,0.0043,0.0026,0.0081,0.0088,0.0025,0.0026,0.0027,0.0028,0,0,-0.0354,-0.0369,-0.0372,-0.0391,-0.0372,-0.037,-0.0364,-0.0346,-0.034,-0.0292,-0.0276,-0.0221,-0.0182,-0.0153,-0.0106,-0.0068,-0.0033,-0.003,-0.0026,0.0012,0.0065,0.0063,0.0071,-0.0013,-0.0013,-0.0012,0.0104,0,-0.0396,-0.0444,-0.043,-0.0468,-0.0489,-0.0451,-0.045,-0.0423,-0.0384,-0.0354,-0.0287,-0.0253,-0.021,-0.0186,-0.0144,-0.0058,-0.0019,-0.0066,0.0082,0.0087,0.0081,0.0077,-0.001,0.011,0.0111,0.0113,0.0114,0,-0.0438,-0.0466,-0.0519,-0.054,-0.0544,-0.0555,-0.0541,-0.0532,-0.0474,-0.0439,-0.0386,-0.0325,-0.0258,-0.0222,-0.0088,-0.0118,-0.004,0.0027,0.0034,0.0059,0.0096,0.0132,0.0127,0.0126,0.0125,0.0124,0.0123,0,-0.0485,-0.0526,-0.0575,-0.0583,-0.0595,-0.0608,-0.0606,-0.0564,-0.0553,-0.049,-0.0462,-0.0373,-0.0316,-0.0214,-0.007,-0.0079,0.0085,0.0093,0.0166,0.0168,0.0167,0.0167,0.0175,0.0174,0.0174,0.0174,0.0174,0,-0.0533,-0.0572,-0.0607,-0.0634,-0.0684,-0.0666,-0.0692,-0.0666,-0.0624,-0.0603,-0.0513,-0.0461,-0.0312,-0.0194,-0.0079,0.0073,0.0083,0.016,0.0194,0.0137,0.0131,0.0173,0.0171,0.0178,0.0177,0.0176,0.0176,0,-0.0573,-0.0598,-0.0659,-0.0696,-0.0712,-0.0746,-0.0758,-0.0763,-0.0711,-0.0676,-0.0657,-0.052,-0.0362,-0.0201,-0.0014,0.0065,0.0207,0.0256,0.0196,0.0225,0.0265,0.0258,0.0338,0.0339,0.034,0.034,0.0341,0,-0.0598,-0.0637,-0.0711,-0.0752,-0.0775,-0.0819,-0.0842,-0.0814,-0.0803,-0.0702,-0.0679,-0.0527,-0.0419,-0.0143,0.001,0.0232,0.0254,0.032,0.0272,0.0254,0.028,0.0272,0.0265,0.0342,0.0342,0.0342,0.0342,0,-0.064,-0.0671,-0.0719,-0.0808,-0.0857,-0.0903,-0.0924,-0.0921,-0.0863,-0.0822,-0.0678,-0.0526,-0.0342,-0.0139,0.004,0.0192,0.027,0.0327,0.0326,0.0281,0.0259,0.0282,0.0274,0.0345,0.0344,0.0344,0.0344,0,-0.0664,-0.0709,-0.0777,-0.0848,-0.0918,-0.0955,-0.0967,-0.0928,-0.0903,-0.0777,-0.073,-0.0518,-0.0392,-0.0157,0.0007,0.0158,0.0179,0.0203,0.0209,0.0208,0.0127,0.0077,0.0135,0,0,0,0,0,-0.0679,-0.073,-0.0807,-0.0881,-0.0952,-0.0982,-0.1002,-0.0992,-0.0937,-0.084,-0.0778,-0.0598,-0.0329,-0.0207,-0.0057,-0.0009,0.0183,0.0167,0.0207,0.0358,0.0355,0.028,0,0,0,0,0,0,-0.0691,-0.0765,-0.0806,-0.0891,-0.0941,-0.1002,-0.1015,-0.098,-0.0911,-0.0833,-0.0683,-0.0582,-0.0321,-0.041,-0.0057,-0.001,0.0028,0.0302,0.0304,0.0359,0.0357,0.0355,0.0276,0,0,0,0,0]}]]